TimeCST,TemperatureF,Dew PointF,Humidity,Sea Level PressureIn,VisibilityMPH,Wind Direction,Wind SpeedMPH,Gust SpeedMPH,PrecipitationIn,Events,Conditions,WindDirDegrees,DateUTC
12:15 AM,-18.4,-25.6,70,30.22,-9999.0,WNW,4.6,-,N/A,,Clear,290,2013-02-01 06:15:00
12:55 AM,-18.4,-25.6,70,30.21,-9999.0,WNW,3.5,-,N/A,,Partly Cloudy,290,2013-02-01 06:55:00
1:15 AM,-20.2,-27.4,69,30.21,-9999.0,West,3.5,-,N/A,,Partly Cloudy,260,2013-02-01 07:15:00
1:35 AM,-20.2,-27.4,69,30.20,-9999.0,WSW,4.6,-,N/A,,Partly Cloudy,250,2013-02-01 07:35:00
2:15 AM,-20.2,-27.4,69,30.20,-9999.0,West,4.6,-,N/A,,Partly Cloudy,270,2013-02-01 08:15:00
2:35 AM,-22.0,-29.2,69,30.20,-9999.0,West,4.6,-,N/A,,Scattered Clouds,270,2013-02-01 08:35:00
2:55 AM,-22.0,-29.2,69,30.20,-9999.0,Calm,Calm,-,N/A,,Scattered Clouds,0,2013-02-01 08:55:00
3:15 AM,-20.2,-27.4,69,30.19,-9999.0,SW,3.5,-,N/A,,Clear,230,2013-02-01 09:15:00
3:35 AM,-20.2,-27.4,69,30.18,-9999.0,WSW,4.6,-,N/A,,Clear,250,2013-02-01 09:35:00
3:55 AM,-20.2,-27.4,69,30.18,-9999.0,WSW,3.5,-,N/A,,Clear,240,2013-02-01 09:55:00
4:15 AM,-20.2,-27.4,69,30.18,-9999.0,WSW,5.8,-,N/A,,Clear,240,2013-02-01 10:15:00
4:35 AM,-20.2,-27.4,69,30.18,-9999.0,WSW,4.6,-,N/A,,Clear,240,2013-02-01 10:35:00
4:55 AM,-20.2,-27.4,69,30.17,-9999.0,WSW,3.5,-,N/A,,Clear,240,2013-02-01 10:55:00
5:15 AM,-20.2,-27.4,69,30.16,-9999.0,Calm,Calm,-,N/A,,Clear,0,2013-02-01 11:15:00
5:35 AM,-20.2,-29.2,63,30.15,-9999.0,Calm,Calm,-,N/A,,Clear,0,2013-02-01 11:35:00
6:15 AM,-20.2,-27.4,69,30.14,-9999.0,SSW,3.5,-,N/A,,Mostly Cloudy,200,2013-02-01 12:15:00
6:35 AM,-20.2,-27.4,69,30.13,-9999.0,Calm,Calm,-,N/A,,Partly Cloudy,0,2013-02-01 12:35:00
6:55 AM,-22.0,-29.2,69,30.12,-9999.0,Calm,Calm,-,N/A,,Scattered Clouds,0,2013-02-01 12:55:00
7:15 AM,-20.2,-27.4,69,30.11,-9999.0,SSW,4.6,-,N/A,,Mostly Cloudy,200,2013-02-01 13:15:00
7:35 AM,-20.2,-27.4,69,30.11,-9999.0,SW,5.8,-,N/A,,Partly Cloudy,220,2013-02-01 13:35:00
7:55 AM,-20.2,-29.2,63,30.10,-9999.0,SW,4.6,-,N/A,,Clear,220,2013-02-01 13:55:00
8:15 AM,-20.2,-27.4,69,30.10,-9999.0,South,6.9,-,N/A,,Clear,190,2013-02-01 14:15:00
8:35 AM,-20.2,-27.4,69,30.09,-9999.0,South,3.5,-,N/A,,Clear,170,2013-02-01 14:35:00
8:55 AM,-20.2,-29.2,63,30.09,-9999.0,Calm,Calm,-,N/A,,Clear,0,2013-02-01 14:55:00
9:15 AM,-20.2,-27.4,69,30.09,-9999.0,Calm,Calm,-,N/A,,Clear,0,2013-02-01 15:15:00
9:35 AM,-18.4,-25.6,70,30.09,-9999.0,SSE,5.8,-,N/A,,Clear,150,2013-02-01 15:35:00
9:55 AM,-16.6,-25.6,64,30.08,-9999.0,Calm,Calm,-,N/A,,Scattered Clouds,0,2013-02-01 15:55:00
10:15 AM,-14.8,-22.0,70,30.08,-9999.0,Calm,Calm,-,N/A,,Overcast,0,2013-02-01 16:15:00
10:35 AM,-13.0,-22.0,64,30.07,-9999.0,ESE,3.5,-,N/A,,Overcast,110,2013-02-01 16:35:00
11:15 AM,-9999,-9999,N/A,30.04,-9999.0,East,6.9,-,N/A,,Overcast,100,2013-02-01 17:15:00
11:35 AM,-11.2,-20.2,64,30.05,-9999.0,ESE,5.8,-,N/A,,Overcast,110,2013-02-01 17:35:00
11:55 AM,-11.2,-18.4,70,30.04,-9999.0,ESE,5.8,-,N/A,,Overcast,110,2013-02-01 17:55:00
12:15 PM,-9.4,-18.4,65,30.03,-9999.0,ESE,6.9,-,N/A,,Overcast,120,2013-02-01 18:15:00
12:35 PM,-7.6,-16.6,65,30.03,-9999.0,ESE,4.6,-,N/A,,Overcast,120,2013-02-01 18:35:00
1:15 PM,-5.8,-16.6,60,30.02,-9999.0,South,6.9,-,N/A,,Overcast,170,2013-02-01 19:15:00
1:35 PM,-5.8,-14.8,65,30.03,-9999.0,SSE,5.8,-,N/A,Snow,Heavy Snow,150,2013-02-01 19:35:00
1:55 PM,-5.8,-14.8,65,30.02,-9999.0,SSE,5.8,-,N/A,,Overcast,160,2013-02-01 19:55:00
2:15 PM,-5.8,-13.0,71,30.02,-9999.0,SSE,5.8,-,N/A,,Overcast,160,2013-02-01 20:15:00
2:35 PM,-4.0,-13.0,65,30.02,-9999.0,SSE,5.8,-,N/A,Snow,Heavy Snow,150,2013-02-01 20:35:00
2:55 PM,-4.0,-11.2,71,30.02,-9999.0,ESE,4.6,-,N/A,Snow,Heavy Snow,120,2013-02-01 20:55:00
3:15 PM,-4.0,-11.2,71,30.02,-9999.0,ESE,5.8,-,N/A,,Overcast,110,2013-02-01 21:15:00
3:35 PM,-4.0,-11.2,71,30.02,-9999.0,ESE,6.9,-,N/A,Snow,Heavy Snow,120,2013-02-01 21:35:00
4:15 PM,-4.0,-9.4,78,30.04,-9999.0,East,5.8,-,N/A,,Overcast,100,2013-02-01 22:15:00
4:35 PM,-4.0,-9.4,78,30.04,-9999.0,ESE,4.6,-,N/A,Snow,Heavy Snow,120,2013-02-01 22:35:00
5:15 PM,-2.2,-9.4,71,30.04,-9999.0,ESE,3.5,-,N/A,,Overcast,120,2013-02-01 23:15:00
5:35 PM,-4.0,-9.4,78,30.05,-9999.0,ESE,3.5,-,N/A,,Overcast,120,2013-02-01 23:35:00
5:55 PM,-4.0,-9.4,78,30.05,-9999.0,Calm,Calm,-,N/A,,Overcast,0,2013-02-01 23:55:00
6:15 PM,-4.0,-9.4,78,30.06,10.0,ENE,3.5,-,N/A,,Overcast,60,2013-02-02 00:15:00
6:35 PM,-4.0,-9.4,78,30.07,10.0,NNE,3.5,-,N/A,,Overcast,30,2013-02-02 00:35:00
6:55 PM,-4.0,-9.4,78,30.07,10.0,Calm,Calm,-,N/A,,Overcast,0,2013-02-02 00:55:00
7:15 PM,-4.0,-9.4,78,30.08,10.0,Calm,Calm,-,N/A,,Overcast,0,2013-02-02 01:15:00
7:35 PM,-4.0,-9.4,78,30.08,10.0,North,3.5,-,N/A,,Overcast,360,2013-02-02 01:35:00
7:55 PM,-4.0,-9.4,78,30.09,10.0,NNW,3.5,-,N/A,,Overcast,340,2013-02-02 01:55:00
8:15 PM,-4.0,-9.4,78,30.10,10.0,North,4.6,-,N/A,,Overcast,350,2013-02-02 02:15:00
8:35 PM,-4.0,-9.4,78,30.10,10.0,North,5.8,-,N/A,,Overcast,350,2013-02-02 02:35:00
8:55 PM,-4.0,-9.4,78,30.11,10.0,NNW,5.8,-,N/A,,Overcast,340,2013-02-02 02:55:00
9:15 PM,-5.8,-9.4,84,30.11,10.0,NNW,5.8,-,N/A,,Overcast,330,2013-02-02 03:15:00
9:35 PM,-7.6,-11.2,84,30.12,10.0,NNW,4.6,-,N/A,,Overcast,330,2013-02-02 03:35:00
9:55 PM,-7.6,-11.2,84,30.13,10.0,NNW,4.6,-,N/A,,Overcast,330,2013-02-02 03:55:00
10:15 PM,-7.6,-11.2,84,30.13,10.0,NNW,6.9,-,N/A,,Overcast,340,2013-02-02 04:15:00
10:35 PM,-7.6,-13.0,77,30.13,10.0,NNW,5.8,-,N/A,,Scattered Clouds,340,2013-02-02 04:35:00
10:55 PM,-9.4,-13.0,84,30.14,10.0,NNW,5.8,-,N/A,,Clear,330,2013-02-02 04:55:00
11:15 PM,-13.0,-16.6,84,30.14,10.0,NW,5.8,-,N/A,,Clear,320,2013-02-02 05:15:00
11:35 PM,-13.0,-16.6,84,30.15,10.0,NW,5.8,-,N/A,,Clear,320,2013-02-02 05:35:00
11:55 PM,-13.0,-16.6,84,30.15,10.0,NNW,5.8,-,N/A,,Mostly Cloudy,330,2013-02-02 05:55:00